Content
SEND FEEDBACK

Daily
Averages
Monthly
Summary
United States of America

STARKE, FLORIDA


Home > North America > United States > Florida
Elevation: 160 feet     Latitude: 29 56N     Longitude: 082 06W

WEATHER
 
SELECT A DAY
Number of Records: 210,915;   Date Range: 1/1/95 - 10/24/14
 
SHARE

PRINT THIS DATA

[ ← Previous Day ]
WEATHER ALMANAC - JANUARY 31, 2013
[ Next Day → ]
[ °C ]   °F
Weather ElementAverageHighLow
Temperature50.5 °F59 °F (1:53 pm)39.9 °F (9:53 pm)
Dewpoint32.4 °F46.9 °F (1:53 am)21.9 °F (3:53 pm)
Humidity53.7 %75 % (2:53 am)24 % (3:53 pm)
Barometer30.14 in30.27 in (11:53 pm)29.96 in (1:53 am)
Wind Speed7.9 mph13.8 mph (8:53 am)
Wind Gust21.9 mph (9:53 am)
Weather ElementAverage
Visibility10 mi
Wind DirectionW (271.4 °)

Weather ElementTotal
Precipitation---
Heating Degree Days15.6 (Base 65)
Averaged from 21 records on January 31, 2013
WEATHER CONDITIONS BREAKOUT
WIND DIRECTION BREAKOUT
WEATHER BY HOUR - JANUARY 31, 2013
[ °C ]   °F
Local TimeTemperatureDewpointHumidityBarometerVisibilityWind DirectionWind SpeedGust SpeedPrecipitationEventsConditions
1:53 AM55.0 °F46.9 °F74 %29.96 in10.0 miWest (270°)11.5 mph0.00 inPartly Cloudy
2:53 AM54.0 °F46.0 °F75 %29.98 in10.0 miWest (280°)8.1 mphOvercast
3:53 AM53.1 °F44.1 °F71 %29.99 in10.0 miWest (280°)8.1 mphMostly Cloudy
4:53 AM52.0 °F43.0 °F71 %30.00 in10.0 miWest (280°)9.2 mphClear
5:53 AM51.1 °F42.1 °F71 %30.04 in10.0 miWNW (300°)8.1 mphClear
6:53 AM48.0 °F37.0 °F66 %30.08 in10.0 miNW (310°)9.2 mph19.6 mphClear
7:53 AM46.0 °F34.0 °F63 %30.12 in10.0 miNW (310°)8.1 mphClear
8:53 AM46.9 °F34.0 °F61 %30.15 in10.0 miWNW (300°)13.8 mph20.7 mphClear
9:53 AM50.0 °F30.9 °F48 %30.17 in10.0 miNW (320°)12.7 mph21.9 mphClear
10:53 AM52.0 °F28.9 °F41 %30.19 in10.0 miWNW (290°)9.2 mph19.6 mphClear
11:53 AM54.0 °F27.0 °F35 %30.18 in10.0 miNW (310°)8.1 mphClear
1:53 PM59.0 °F23.0 °F25 %30.16 in10.0 miWNW (290°)10.4 mph18.4 mphClear
2:53 PM59.0 °F23.0 °F25 %30.16 in10.0 miNW (320°)12.7 mphClear
3:53 PM59.0 °F21.9 °F24 %30.16 in10.0 miNW (310°)8.1 mphClear
4:53 PM57.9 °F21.9 °F25 %30.17 in10.0 miWNW (290°)10.4 mphClear
5:53 PM54.0 °F24.1 °F31 %30.17 in10.0 miWNW (300°)4.6 mphClear
6:53 PM45.0 °F30.0 °F56 %30.20 in10.0 miNW (310°)3.5 mphClear
7:53 PM43.0 °F32.0 °F65 %30.22 in10.0 miCalmClear
8:53 PM41.0 °F32.0 °F70 %30.25 in10.0 miNW (320°)4.6 mphClear
9:53 PM39.9 °F30.9 °F70 %30.26 in10.0 miNW (310°)4.6 mphClear
11:53 PM41.0 °F28.0 °F60 %30.27 in10.0 miCalmClear
Hourly data recorded from KGNV, located miles away from Starke, Florida







STORIES FROM OUR PARTNERS